| time (UTC) | temp C | wind direction | speed KPH | gust KPH | rain 1hr cm | rain 24hr cm | rain mn cm | humidity % | barometer mb |
| 20260503054543 | 9 | 287 | 1.6 | 11.3 | 0.00 | 0.08 | 0.00 | 54 | 1010.2 |
| 20260503053044 | 9 | 225 | 4.8 | 14.5 | 0.00 | 0.08 | 0.00 | 54 | 1010.5 |
| 20260503051556 | 9 | 304 | 4.8 | 14.5 | 0.00 | 0.08 | 0.00 | 54 | 1010.6 |
| 20260503050055 | 10 | 0 | 0.0 | 12.9 | 0.00 | 0.08 | 0.00 | 55 | 1010.6 |
| 20260503044549 | 10 | 0 | 1.6 | 17.7 | 0.00 | 0.08 | 0.00 | 56 | 1010.8 |
| 20260503043054 | 10 | 0 | 1.6 | 11.3 | 0.00 | 0.08 | 0.00 | 53 | 1010.7 |
| 20260503041548 | 10 | 0 | 1.6 | 8.0 | 0.00 | 0.08 | 0.00 | 54 | 1011.0 |
| 20260503040052 | 10 | 285 | 3.2 | 12.9 | 0.00 | 0.08 | 0.00 | 53 | 1010.9 |
| 20260503034549 | 10 | 280 | 3.2 | 17.7 | 0.00 | 0.08 | 0.08 | 53 | 1010.8 |
| 20260503033051 | 10 | 0 | 1.6 | 9.7 | 0.00 | 0.08 | 0.08 | 54 | 1010.7 |
| 20260503031548 | 11 | 0 | 0.0 | 6.4 | 0.00 | 0.08 | 0.08 | 52 | 1010.7 |
| 20260503030050 | 11 | 240 | 1.6 | 8.0 | 0.00 | 0.08 | 0.08 | 50 | 1010.6 |
| 20260503024557 | 11 | 217 | 1.6 | 6.4 | 0.00 | 0.08 | 0.08 | 50 | 1010.4 |
| 20260503023048 | 11 | 261 | 3.2 | 11.3 | 0.00 | 0.08 | 0.08 | 50 | 1010.4 |
| 20260503021556 | 11 | 218 | 3.2 | 11.3 | 0.00 | 0.08 | 0.08 | 49 | 1010.7 |
| 20260503020052 | 12 | 264 | 4.8 | 16.1 | 0.00 | 0.08 | 0.08 | 47 | 1010.9 |
| 20260503014614 | 12 | 307 | 1.6 | 16.1 | 0.00 | 0.08 | 0.08 | 46 | 1010.8 |
| 20260503013046 | 12 | 239 | 1.6 | 12.9 | 0.00 | 0.08 | 0.08 | 47 | 1010.7 |
| 20260503011555 | 12 | 224 | 3.2 | 11.3 | 0.00 | 0.08 | 0.08 | 47 | 1010.6 |
| 20260503010054 | 12 | 259 | 3.2 | 12.9 | 0.00 | 0.08 | 0.08 | 46 | 1010.4 |
| 20260503004557 | 12 | 227 | 3.2 | 14.5 | 0.00 | 0.08 | 0.08 | 44 | 1010.2 |
| 20260503003048 | 13 | 182 | 3.2 | 19.3 | 0.00 | 0.08 | 0.08 | 43 | 1010.1 |
| 20260503001550 | 13 | 248 | 3.2 | 16.1 | 0.00 | 0.08 | 0.08 | 43 | 1010.0 |
| 20260503000043 | 13 | 221 | 6.4 | 16.1 | 0.00 | 0.08 | 0.08 | 45 | 1010.0 |
| 20260502234547 | 13 | 263 | 1.6 | 4.8 | 0.00 | 0.08 | 0.08 | 45 | 1009.8 |
| 20260502233052 | 13 | 0 | 0.0 | 11.3 | 0.00 | 0.08 | 0.08 | 44 | 1009.7 |
| 20260502231545 | 14 | 0 | 3.2 | 9.7 | 0.00 | 0.08 | 0.08 | 41 | 1009.7 |
| 20260502230042 | 15 | 256 | 3.2 | 12.9 | 0.00 | 0.08 | 0.08 | 42 | 1009.5 |
| 20260502224602 | 15 | 275 | 3.2 | 19.3 | 0.00 | 0.08 | 0.08 | 42 | 1009.5 |
| 20260502223047 | 15 | 205 | 4.8 | 14.5 | 0.00 | 0.08 | 0.08 | 43 | 1009.4 |
| 20260502221544 | 14 | 61 | 0.0 | 6.4 | 0.00 | 0.08 | 0.08 | 62 | 1009.4 |
| 20260502220051 | 13 | 0 | 3.2 | 14.5 | 0.00 | 0.08 | 0.08 | 68 | 1009.3 |
| 20260502214549 | 13 | 58 | 3.2 | 9.7 | 0.00 | 0.08 | 0.08 | 74 | 1009.3 |
| 20260502213103 | 13 | 58 | 3.2 | 12.9 | 0.00 | 0.08 | 0.08 | 73 | 1009.3 |
| 20260502211559 | 13 | 33 | 6.4 | 12.9 | 0.00 | 0.08 | 0.08 | 72 | 1009.3 |
| 20260502210043 | 13 | 34 | 3.2 | 11.3 | 0.00 | 0.08 | 0.08 | 71 | 1009.1 |
| 20260502204542 | 13 | 13 | 6.4 | 14.5 | 0.00 | 0.08 | 0.08 | 64 | 1008.9 |
| 20260502203058 | 13 | 39 | 6.4 | 16.1 | 0.00 | 0.08 | 0.08 | 68 | 1009.1 |
| 20260502201552 | 13 | 22 | 9.7 | 14.5 | 0.00 | 0.08 | 0.08 | 67 | 1009.4 |
| 20260502200059 | 13 | 29 | 8.0 | 16.1 | 0.00 | 0.08 | 0.08 | 66 | 1009.6 |
| 20260502194559 | 14 | 17 | 8.0 | 16.1 | 0.00 | 0.08 | 0.08 | 63 | 1009.7 |
| 20260502193046 | 15 | 159 | 1.6 | 8.0 | 0.00 | 0.08 | 0.08 | 52 | 1009.9 |
| 20260502191540 | 15 | 296 | 3.2 | 17.7 | 0.00 | 0.08 | 0.08 | 52 | 1010.0 |
| 20260502190047 | 15 | 237 | 3.2 | 11.3 | 0.00 | 0.08 | 0.08 | 51 | 1010.3 |
| 20260502184554 | 15 | 188 | 3.2 | 16.1 | 0.00 | 0.08 | 0.08 | 53 | 1010.4 |
| 20260502183057 | 15 | 292 | 3.2 | 12.9 | 0.00 | 0.08 | 0.08 | 54 | 1010.5 |
| 20260502181544 | 15 | 273 | 3.2 | 12.9 | 0.00 | 0.08 | 0.08 | 55 | 1010.8 |
| 20260502163056 | 14 | 190 | 4.8 | 11.3 | 0.00 | 0.08 | 0.08 | 63 | 1011.1 |
| 20260502161552 | 13 | 213 | 1.6 | 16.1 | 0.00 | 0.08 | 0.08 | 66 | 1011.2 |
| 20260502151600 | 11 | 61 | 1.6 | 4.8 | 0.00 | 0.08 | 0.08 | 82 | 1011.5 |
| 20260502123042 | 10 | 0 | 0.0 | 1.6 | 0.00 | 0.08 | 0.08 | 90 | 1011.9 |
| 20260502121545 | 10 | 0 | 0.0 | 0.0 | 0.00 | 0.08 | 0.08 | 90 | 1011.7 |
| 20260502114554 | 10 | 0 | 0.0 | 0.0 | 0.00 | 0.08 | 0.08 | 90 | 1011.7 |
| 20260502113050 | 10 | 0 | 0.0 | 0.0 | 0.00 | 0.08 | 0.08 | 90 | 1011.6 |
| 20260502111551 | 10 | 0 | 0.0 | 0.0 | 0.00 | 0.08 | 0.08 | 90 | 1011.7 |
| 20260502110042 | 10 | 0 | 0.0 | 0.0 | 0.05 | 0.08 | 0.08 | 90 | 1011.3 |
| 20260502104559 | 10 | 0 | 0.0 | 0.0 | 0.08 | 0.08 | 0.08 | 89 | 1011.1 |
| 20260502103046 | 10 | 0 | 0.0 | 0.0 | 0.08 | 0.08 | 0.08 | 88 | 1010.9 |
| 20260502101615 | 10 | 0 | 0.0 | 3.2 | 0.08 | 0.08 | 0.08 | 88 | 1010.9 |
| 20260502090106 | 10 | 0 | 1.6 | 14.5 | 0.00 | 0.00 | 0.00 | 88 | 1010.7 |
| 20260502070058 | 10 | 0 | 0.0 | 0.0 | 0.00 | 0.00 | 0.00 | 88 | 1010.9 |
| 20260502064545 | 9 | 0 | 0.0 | 0.0 | 0.00 | 0.00 | 0.00 | 87 | 1011.0 |